GFSNIL_850_spd_159.txt.gz
Wind_Speed
23 20 19 16 15 14 13 12 9 7 7 8 9 9 8 7 7 7 9 9 9 11
23 22 21 20 18 17 15 10 16 16 9 9 10 11 11 9 9 12 7 9 10 8
20 20 23 22 20 21 14 19 9 13 11 11 11 8 11 11 13 13 14 11 11 12
20 20 23 22 21 21 21 14 9 17 12 13 13 13 12 12 18 13 8 12 13 10
21 20 21 23 24 24 21 19 17 15 16 14 14 15 17 12 11 12 11 13 13 13
23 23 21 22 21 22 23 22 20 19 17 16 14 14 13 13 13 13 15 15 18 18
24 21 21 20 21 21 23 22 21 21 20 18 15 15 15 15 15 15 16 15 18 18
21 23 22 22 22 21 22 22 22 22 22 21 18 18 19 18 17 16 16 15 16 16
26 23 23 25 24 25 25 24 25 24 24 22 20 19 21 21 17 16 17 15 15 16
20 18 19 20 22 24 25 23 24 25 25 25 22 21 24 23 22 19 20 20 18 16
15 16 14 19 20 19 21 24 24 25 25 25 24 24 24 26 27 22 22 22 23 24
8 8 8 12 14 16 18 21 22 25 26 25 24 24 23 26 23 20 22 20 21 24
4 9 11 10 10 13 16 18 16 14 20 22 18 21 21 19 20 16 18 22 22 24
8 11 8 9 10 10 11 13 15 19 20 18 17 17 14 13 16 18 16 16 20 22

GFSNIL_850_spd_162.txt.gz
Wind_Speed
27 24 22 22 24 18 16 19 21 17 11 8 14 10 8 7 5 5 8 10 12 13
28 30 21 24 25 21 18 8 15 16 11 10 9 11 11 11 7 7 12 10 10 10
27 28 29 25 24 23 22 9 16 19 14 14 13 15 16 12 13 13 13 10 14 15
21 23 27 30 27 26 22 26 18 11 14 14 16 14 14 15 15 17 14 12 15 14
22 22 22 30 26 27 26 27 25 19 15 20 20 14 18 14 11 12 10 10 10 14
27 24 27 23 29 25 27 26 22 20 23 20 19 18 18 20 18 17 13 13 14 11
32 28 27 28 26 23 29 27 26 27 24 20 19 18 17 15 13 13 14 15 16 19
35 32 28 28 26 27 26 27 25 24 26 25 23 19 17 18 18 18 18 18 18 19
34 34 29 22 28 24 26 25 25 25 25 27 29 23 21 22 21 20 21 21 20 17
22 26 22 29 32 31 30 29 28 26 25 26 26 25 24 24 25 24 22 22 20 20
21 21 25 30 26 24 29 26 23 25 23 26 26 27 26 24 26 26 27 26 23 22
19 23 12 16 14 16 19 18 18 22 22 23 25 28 28 28 28 29 27 27 26 25
4 18 31 27 18 12 9 11 13 17 21 23 23 30 28 27 26 24 22 19 16 20
6 4 4 6 6 9 10 10 9 12 15 15 15 22 23 20 18 21 20 17 20 22

GFSNIL_850_spd_165.txt.gz
Wind_Speed
32 32 30 25 18 21 19 14 16 17 17 12 9 11 13 8 6 5 9 9 10 10
34 34 34 27 26 23 21 17 15 24 20 13 8 9 9 6 4 5 6 6 6 6
33 36 33 32 27 27 24 20 14 18 22 15 11 9 9 8 9 10 12 10 13 10
30 31 34 33 31 29 25 24 17 19 21 18 15 14 16 12 12 13 14 12 15 16
22 24 28 34 33 34 29 27 21 19 23 23 18 18 17 17 14 15 15 11 12 12
26 22 22 27 32 33 33 27 27 26 25 25 21 20 20 22 18 16 17 14 13 12
27 26 25 21 21 30 33 33 30 30 26 26 25 19 22 24 18 12 15 18 15 14
24 31 30 29 26 24 27 27 29 28 27 29 25 23 22 22 17 15 15 15 17 18
36 38 34 29 27 28 30 29 26 28 28 26 27 25 24 19 18 19 20 20 20 20
19 18 28 32 35 32 30 29 30 27 27 27 27 25 27 24 23 24 24 23 21 19
23 19 14 16 29 34 34 33 29 27 27 25 24 26 27 29 29 27 24 24 24 25
13 14 17 23 12 32 47 36 28 29 29 28 27 28 30 29 30 30 30 27 26 27
2 8 12 23 21 26 17 15 30 22 21 24 24 22 28 30 27 28 30 26 26 26
5 6 9 6 10 18 11 3 5 9 11 13 15 14 16 19 19 22 27 27 24 23

GFSNIL_850_spd_168.txt.gz
Wind_Speed
35 30 28 30 25 29 28 21 19 18 16 14 14 17 18 16 16 14 15 14 14 12
37 34 32 32 30 25 24 24 20 19 18 20 18 16 16 17 15 13 12 12 11 11
37 36 35 34 33 27 24 24 24 21 24 25 21 17 18 17 15 14 15 14 14 14
33 37 38 37 38 33 29 29 28 28 24 27 25 20 19 17 17 16 19 16 16 14
30 35 37 40 40 39 35 31 29 29 23 26 27 22 22 20 19 19 17 18 20 16
32 32 34 34 38 41 36 35 30 27 26 26 27 24 22 21 22 19 19 18 17 18
34 32 28 30 32 35 41 36 35 32 30 28 26 26 25 23 24 23 22 22 22 18
32 30 28 31 28 25 31 36 37 37 33 30 31 28 28 25 24 23 19 18 18 19
34 35 31 31 29 30 27 25 31 34 34 33 29 29 29 26 25 24 22 22 20 20
34 35 33 33 32 31 26 26 30 33 33 33 32 31 29 27 26 26 25 24 20 21
23 27 29 26 27 35 35 31 36 34 35 32 31 31 31 28 27 27 28 23 23 24
8 12 14 20 24 29 29 31 36 38 29 27 31 32 31 30 29 29 31 30 27 26
2 5 8 14 20 11 19 15 17 23 30 30 33 33 31 29 28 29 28 31 33 32
4 4 4 5 17 18 11 9 9 10 12 20 24 22 22 25 25 26 26 31 33 32

GFSNIL_850_spd_171.txt.gz
Wind_Speed
28 31 32 27 22 24 24 20 15 14 15 16 18 17 17 19 18 18 16 17 16 15
29 35 35 32 27 26 24 24 22 20 18 17 17 15 15 17 17 15 16 16 15 15
31 33 37 34 32 31 29 24 26 24 21 19 18 17 17 18 17 18 16 14 15 15
34 35 35 38 37 35 32 29 27 26 23 23 21 23 24 21 19 20 19 17 16 16
36 34 34 38 39 36 35 33 30 28 27 28 27 24 27 26 21 21 20 19 18 19
37 38 34 34 36 38 37 36 34 33 35 32 29 28 29 27 23 23 22 21 21 20
36 37 37 32 32 35 37 38 37 38 35 32 32 29 29 30 26 23 23 24 22 22
40 36 33 30 24 29 31 30 35 37 35 34 32 31 30 31 29 26 25 27 28 24
33 33 32 31 31 28 30 25 26 33 38 35 36 34 32 29 31 31 29 27 24 23
32 34 35 35 35 32 31 32 27 27 32 38 40 37 35 31 31 32 32 29 26 26
21 26 30 33 34 28 32 33 35 35 33 34 36 38 37 35 34 33 32 30 29 27
14 16 19 20 23 28 29 33 37 34 37 31 37 33 38 36 33 32 34 31 29 29
2 6 6 10 11 18 24 27 33 32 33 40 37 33 29 32 32 32 33 31 31 31
4 5 3 6 10 12 9 12 17 17 19 26 29 31 29 31 30 30 32 33 29 29

GFSNIL_850_spd_174.txt.gz
Wind_Speed
26 26 25 25 24 21 20 18 15 15 14 12 12 14 13 14 14 14 14 13 13 15
28 27 25 28 27 25 20 21 20 19 17 17 15 14 15 13 13 14 14 13 14 14
30 28 27 28 30 30 26 22 21 21 22 21 19 17 16 14 12 14 16 15 14 13
31 31 28 29 31 32 29 27 26 25 21 22 22 20 19 18 19 18 17 16 16 15
32 31 29 30 31 31 34 31 29 28 25 24 24 23 21 21 25 25 21 19 19 17
33 33 31 30 29 30 31 34 32 29 30 28 26 26 27 26 26 26 24 21 20 18
33 33 31 28 29 29 26 29 33 34 32 33 32 32 32 31 25 26 25 22 21 21
28 28 30 29 28 29 28 26 26 30 35 36 35 34 32 30 29 27 29 27 25 23
22 26 28 32 30 30 33 33 32 28 32 34 37 36 34 32 30 30 31 32 29 27
18 21 24 28 28 31 34 26 27 34 29 31 35 35 36 33 33 33 32 32 32 29
17 20 21 22 23 25 30 30 32 34 37 37 28 27 32 36 35 37 36 34 32 32
8 11 12 13 15 18 22 27 37 35 30 32 30 28 27 28 33 37 38 38 37 34
3 1 3 5 6 8 11 17 20 21 23 28 32 29 29 30 29 36 37 37 36 35
6 5 4 1 4 6 7 6 6 10 15 19 19 23 31 35 36 34 30 32 31 32